Find ST-1

NORAD ID: 25460 Int'l Des: 1998-049 Owner: STEL Country: SG operational
HEOCIRCULAR

Aktuelle Ansicht

3D-Globus wird geladen...

Über ST-1

Beschreibung wird geladen...

Nächste Überflüge

Passes for default location (London). Set your location on the main map for personalized predictions.

Höhenverlauf

Loading altitude history...

Zweizeiliger Elementsatz

1 25460U 98049A 26151.27120023 -.00000033 00000-0 00000+0 0 9995
2 25460 11.0299 45.4911 0013684 330.9359 243.9539 0.98746125 44903
Epoch: 31. Mai 2026 • Age: 17 hours

Aktueller Status

Höhe 36262.0 km
Geschwindigkeit 3.06 km/s
Subsatellitenpunkt 10.41°N, 89.5°W
Startdatum 25. Aug. 1998
Alter 27.7 years
Typ other

Technische Details

Klassifizierung Payload
Masse 3255.00 kg
Trockenmasse 1502.00 kg
Gesamtmasse 3255.00 kg
Länge 2.90 m
Durchmesser 1.70 m
Spannweite 22.50 m
Form Box + 2 Pan
Hersteller MMST
Bus-Typ Eurostar 2000+
Phasenstatus In Orbit
Besitzer/Staat STEL/SG

Most Searched